| time (UTC) | temp C | wind direction | speed KPH | gust KPH | rain 1hr cm | rain 24hr cm | rain mn cm | humidity % | barometer mb |
| 20260507092415 | 10 | 339 | 6.4 | 8.0 | 0.00 | 0.03 | 0.03 | 84 | 1013.2 |
| 20260507091912 | 10 | 298 | 4.8 | 4.8 | 0.00 | 0.03 | 0.03 | 84 | 1012.7 |
| 20260507091408 | 10 | 277 | 4.8 | 4.8 | 0.00 | 0.03 | 0.03 | 83 | 1012.7 |
| 20260507090904 | 10 | 280 | 4.8 | 4.8 | 0.00 | 0.03 | 0.03 | 83 | 1012.7 |
| 20260507090401 | 10 | 270 | 3.2 | 3.2 | 0.00 | 0.03 | 0.03 | 83 | 1012.6 |
| 20260507085858 | 11 | 0 | 1.6 | 3.2 | 0.00 | 0.03 | 0.03 | 78 | 1012.4 |
| 20260507085354 | 10 | 22 | 3.2 | 3.2 | 0.00 | 0.03 | 0.03 | 79 | 1012.1 |
| 20260507084852 | 11 | 22 | 1.6 | 1.6 | 0.00 | 0.03 | 0.03 | 80 | 1012.4 |
| 20260507084348 | 11 | 99 | 0.0 | 0.0 | 0.00 | 0.03 | 0.03 | 80 | 1012.2 |
| 20260507083846 | 11 | 51 | 0.0 | 0.0 | 0.00 | 0.03 | 0.03 | 81 | 1012.4 |
| 20260507083342 | 11 | 52 | 0.0 | 0.0 | 0.00 | 0.03 | 0.03 | 78 | 1012.1 |
| 20260507082838 | 11 | 52 | 0.0 | 0.0 | 0.00 | 0.03 | 0.03 | 77 | 1012.1 |
| 20260507082334 | 11 | 52 | 0.0 | 0.0 | 0.00 | 0.03 | 0.03 | 74 | 1012.1 |
| 20260507081831 | 11 | 52 | 0.0 | 0.0 | 0.00 | 0.03 | 0.03 | 75 | 1012.2 |
| 20260507081327 | 11 | 52 | 0.0 | 0.0 | 0.00 | 0.03 | 0.03 | 76 | 1012.1 |
| 20260507080824 | 11 | 52 | 1.6 | 1.6 | 0.00 | 0.03 | 0.03 | 75 | 1012.2 |
| 20260507080320 | 11 | 62 | 0.0 | 0.0 | 0.00 | 0.03 | 0.03 | 77 | 1012.0 |
| 20260507075815 | 11 | 52 | 3.2 | 3.2 | 0.00 | 0.03 | 0.03 | 78 | 1012.0 |
| 20260507075312 | 11 | 45 | 1.6 | 1.6 | 0.00 | 0.03 | 0.03 | 76 | 1012.0 |
| 20260507074809 | 12 | 67 | 1.6 | 1.6 | 0.00 | 0.03 | 0.03 | 70 | 1011.9 |
| 20260507074306 | 12 | 107 | 3.2 | 3.2 | 0.00 | 0.03 | 0.03 | 69 | 1012.0 |
| 20260507073803 | 12 | 100 | 3.2 | 3.2 | 0.00 | 0.03 | 0.03 | 68 | 1012.0 |
| 20260507073300 | 12 | 124 | 4.8 | 4.8 | 0.00 | 0.03 | 0.03 | 67 | 1011.9 |
| 20260507072757 | 13 | 142 | 4.8 | 4.8 | 0.00 | 0.03 | 0.03 | 65 | 1011.9 |
| 20260507072255 | 12 | 244 | 0.0 | 0.0 | 0.00 | 0.03 | 0.03 | 65 | 1012.1 |
| 20260507071752 | 13 | 179 | 1.6 | 1.6 | 0.00 | 0.03 | 0.03 | 66 | 1011.9 |
| 20260507071248 | 13 | 162 | 4.8 | 4.8 | 0.00 | 0.03 | 0.03 | 64 | 1012.0 |
| 20260507070745 | 13 | 216 | 0.0 | 1.6 | 0.00 | 0.03 | 0.03 | 64 | 1011.9 |
| 20260507070242 | 13 | 255 | 6.4 | 8.0 | 0.00 | 0.03 | 0.03 | 64 | 1011.9 |
| 20260507065738 | 12 | 204 | 6.4 | 9.7 | 0.00 | 0.03 | 0.03 | 66 | 1011.9 |
| 20260507065236 | 13 | 231 | 9.7 | 11.3 | 0.00 | 0.03 | 0.03 | 66 | 1011.9 |
| 20260507064733 | 12 | 229 | 8.0 | 9.7 | 0.00 | 0.03 | 0.03 | 63 | 1011.9 |
| 20260507064232 | 12 | 65 | 0.0 | 0.0 | 0.00 | 0.03 | 0.03 | 67 | 1011.9 |
| 20260507063728 | 13 | 33 | 3.2 | 3.2 | 0.00 | 0.03 | 0.03 | 65 | 1011.7 |
| 20260507063225 | 13 | 34 | 4.8 | 4.8 | 0.00 | 0.03 | 0.03 | 62 | 1011.7 |
| 20260507062722 | 13 | 42 | 6.4 | 8.0 | 0.00 | 0.03 | 0.03 | 64 | 1011.9 |
| 20260507062220 | 13 | 342 | 9.7 | 11.3 | 0.00 | 0.03 | 0.03 | 64 | 1012.0 |
| 20260507061717 | 14 | 315 | 9.7 | 12.9 | 0.18 | 0.03 | 0.03 | 61 | 1012.5 |
| 20260507061215 | 13 | 316 | 8.0 | 14.5 | 0.18 | 0.03 | 0.03 | 63 | 1012.6 |
| 20260507060713 | 14 | 294 | 30.6 | 37.0 | 0.00 | 0.00 | 0.00 | 61 | 1012.9 |
| 20260507060209 | 14 | 303 | 22.5 | 25.7 | 0.00 | 0.00 | 0.00 | 58 | 1012.6 |
| 20260507055705 | 15 | 262 | 16.1 | 17.7 | 0.00 | 0.00 | 0.00 | 59 | 1012.6 |
| 20260507055201 | 15 | 269 | 30.6 | 35.4 | 0.00 | 0.00 | 0.00 | 54 | 1012.8 |
| 20260507054657 | 15 | 300 | 19.3 | 25.7 | 0.00 | 0.00 | 0.00 | 59 | 1012.6 |
| 20260507054154 | 14 | 286 | 22.5 | 24.1 | 0.00 | 0.00 | 0.00 | 61 | 1012.5 |
| 20260507053652 | 15 | 293 | 19.3 | 24.1 | 0.00 | 0.00 | 0.00 | 58 | 1012.2 |
| 20260507053150 | 15 | 346 | 1.6 | 3.2 | 0.00 | 0.00 | 0.00 | 56 | 1012.1 |
| 20260507052648 | 16 | 294 | 25.7 | 29.0 | 0.00 | 0.00 | 0.00 | 50 | 1012.1 |
| 20260507052144 | 17 | 294 | 19.3 | 22.5 | 0.00 | 0.00 | 0.00 | 47 | 1012.0 |
| 20260507051642 | 17 | 290 | 17.7 | 24.1 | 0.00 | 0.00 | 0.00 | 45 | 1012.0 |
| 20260507051138 | 17 | 244 | 37.0 | 43.5 | 0.00 | 0.00 | 0.00 | 45 | 1012.0 |
| 20260507050635 | 16 | 261 | 33.8 | 41.8 | 0.00 | 0.00 | 0.00 | 45 | 1011.8 |
| 20260507050132 | 16 | 259 | 24.1 | 29.0 | 0.00 | 0.00 | 0.00 | 51 | 1012.1 |
| 20260507045629 | 16 | 307 | 35.4 | 40.2 | 0.00 | 0.00 | 0.00 | 51 | 1012.6 |
| 20260507045126 | 16 | 303 | 17.7 | 17.7 | 0.00 | 0.00 | 0.00 | 50 | 1012.5 |
| 20260507044622 | 16 | 285 | 17.7 | 20.9 | 0.00 | 0.00 | 0.00 | 50 | 1012.5 |
| 20260507044120 | 16 | 281 | 29.0 | 32.2 | 0.00 | 0.00 | 0.00 | 48 | 1012.0 |
| 20260507043615 | 16 | 282 | 32.2 | 38.6 | 0.00 | 0.00 | 0.00 | 48 | 1012.5 |
| 20260507043113 | 17 | 280 | 41.8 | 46.7 | 0.00 | 0.00 | 0.00 | 44 | 1012.2 |
| 20260507042609 | 16 | 259 | 11.3 | 12.9 | 0.00 | 0.00 | 0.00 | 49 | 1012.2 |
| 20260507042104 | 16 | 281 | 8.0 | 9.7 | 0.00 | 0.00 | 0.00 | 48 | 1011.9 |
| 20260507041601 | 16 | 265 | 8.0 | 8.0 | 0.00 | 0.00 | 0.00 | 47 | 1011.9 |
| 20260507041058 | 17 | 264 | 8.0 | 9.7 | 0.00 | 0.00 | 0.00 | 45 | 1011.9 |
| 20260507040555 | 17 | 276 | 6.4 | 9.7 | 0.00 | 0.00 | 0.00 | 45 | 1011.9 |
| 20260507040051 | 17 | 236 | 6.4 | 9.7 | 0.00 | 0.00 | 0.00 | 44 | 1011.9 |
| 20260507035547 | 17 | 265 | 9.7 | 9.7 | 0.00 | 0.00 | 0.00 | 44 | 1011.8 |
| 20260507035043 | 17 | 244 | 9.7 | 11.3 | 0.00 | 0.00 | 0.00 | 43 | 1011.7 |
| 20260507034540 | 17 | 255 | 11.3 | 12.9 | 0.00 | 0.00 | 0.00 | 43 | 1011.5 |
| 20260507034038 | 17 | 247 | 11.3 | 12.9 | 0.00 | 0.00 | 0.00 | 44 | 1011.6 |
| 20260507033536 | 17 | 250 | 11.3 | 12.9 | 0.00 | 0.00 | 0.00 | 44 | 1011.5 |
| 20260507033033 | 17 | 248 | 11.3 | 12.9 | 0.00 | 0.00 | 0.00 | 44 | 1011.5 |
| 20260507032530 | 17 | 240 | 14.5 | 16.1 | 0.00 | 0.00 | 0.00 | 43 | 1011.3 |
| 20260507032026 | 17 | 253 | 17.7 | 20.9 | 0.00 | 0.00 | 0.00 | 43 | 1011.1 |
| 20260507031522 | 17 | 246 | 14.5 | 16.1 | 0.00 | 0.00 | 0.00 | 43 | 1011.3 |
| 20260507031020 | 18 | 243 | 14.5 | 17.7 | 0.00 | 0.00 | 0.00 | 43 | 1011.2 |
| 20260507030516 | 18 | 248 | 20.9 | 24.1 | 0.00 | 0.00 | 0.00 | 42 | 1011.1 |
| 20260507030014 | 18 | 255 | 14.5 | 16.1 | 0.00 | 0.00 | 0.00 | 42 | 1011.0 |
| 20260507025511 | 18 | 272 | 16.1 | 17.7 | 0.00 | 0.00 | 0.00 | 41 | 1010.9 |
| 20260507025009 | 18 | 238 | 16.1 | 16.1 | 0.00 | 0.00 | 0.00 | 40 | 1010.8 |
| 20260507024506 | 18 | 257 | 17.7 | 17.7 | 0.00 | 0.00 | 0.00 | 40 | 1010.9 |
| 20260507024002 | 18 | 258 | 17.7 | 20.9 | 0.00 | 0.00 | 0.00 | 38 | 1010.9 |
| 20260507023459 | 18 | 267 | 11.3 | 14.5 | 0.00 | 0.00 | 0.00 | 38 | 1011.0 |
| 20260507022956 | 18 | 273 | 14.5 | 16.1 | 0.00 | 0.00 | 0.00 | 37 | 1010.9 |
| 20260507022453 | 19 | 280 | 14.5 | 16.1 | 0.00 | 0.00 | 0.00 | 36 | 1010.8 |
| 20260507021948 | 19 | 284 | 19.3 | 22.5 | 0.00 | 0.00 | 0.00 | 36 | 1010.8 |
| 20260507021444 | 18 | 273 | 19.3 | 24.1 | 0.00 | 0.00 | 0.00 | 36 | 1010.8 |
| 20260507020941 | 18 | 302 | 11.3 | 14.5 | 0.00 | 0.00 | 0.00 | 36 | 1010.7 |
| 20260507020438 | 19 | 306 | 14.5 | 16.1 | 0.00 | 0.00 | 0.00 | 36 | 1010.8 |
| 20260507015935 | 20 | 264 | 17.7 | 20.9 | 0.00 | 0.00 | 0.00 | 34 | 1010.8 |
| 20260507015434 | 20 | 285 | 14.5 | 17.7 | 0.00 | 0.00 | 0.00 | 34 | 1010.8 |
| 20260507014930 | 20 | 286 | 25.7 | 33.8 | 0.00 | 0.00 | 0.00 | 33 | 1011.1 |
| 20260507014427 | 20 | 289 | 16.1 | 20.9 | 0.00 | 0.00 | 0.00 | 34 | 1010.8 |
| 20260507013923 | 20 | 322 | 17.7 | 20.9 | 0.00 | 0.00 | 0.00 | 33 | 1010.7 |
| 20260507013420 | 20 | 290 | 20.9 | 24.1 | 0.00 | 0.00 | 0.00 | 33 | 1010.8 |
| 20260507012917 | 20 | 279 | 20.9 | 22.5 | 0.00 | 0.00 | 0.00 | 32 | 1010.8 |
| 20260507012413 | 20 | 277 | 22.5 | 25.7 | 0.00 | 0.00 | 0.00 | 33 | 1010.8 |
| 20260507011905 | 20 | 287 | 20.9 | 25.7 | 0.00 | 0.00 | 0.00 | 33 | 1010.7 |
| 20260507011402 | 20 | 288 | 24.1 | 32.2 | 0.00 | 0.00 | 0.00 | 32 | 1010.9 |
| 20260507010902 | 21 | 303 | 24.1 | 24.1 | 0.00 | 0.00 | 0.00 | 32 | 1010.8 |
| 20260507010357 | 21 | 275 | 27.4 | 29.0 | 0.00 | 0.00 | 0.00 | 32 | 1010.7 |
| 20260507005855 | 21 | 281 | 20.9 | 24.1 | 0.00 | 0.00 | 0.00 | 32 | 1010.8 |
| 20260507005351 | 21 | 272 | 22.5 | 27.4 | 0.00 | 0.00 | 0.00 | 32 | 1010.8 |
| 20260507004848 | 20 | 272 | 25.7 | 27.4 | 0.00 | 0.00 | 0.00 | 31 | 1010.7 |
| 20260507004345 | 20 | 271 | 22.5 | 25.7 | 0.00 | 0.00 | 0.00 | 32 | 1010.7 |
| 20260507003842 | 20 | 306 | 16.1 | 16.1 | 0.00 | 0.00 | 0.00 | 33 | 1010.7 |
| 20260507003338 | 21 | 273 | 24.1 | 27.4 | 0.00 | 0.00 | 0.00 | 31 | 1010.6 |
| 20260507002833 | 21 | 306 | 19.3 | 24.1 | 0.00 | 0.00 | 0.00 | 31 | 1010.7 |
| 20260507002329 | 21 | 332 | 20.9 | 25.7 | 0.00 | 0.00 | 0.00 | 31 | 1010.9 |
| 20260507001827 | 21 | 269 | 25.7 | 32.2 | 0.00 | 0.00 | 0.00 | 30 | 1010.7 |
| 20260507001323 | 21 | 291 | 25.7 | 27.4 | 0.00 | 0.00 | 0.00 | 31 | 1010.8 |
| 20260507000820 | 22 | 270 | 24.1 | 25.7 | 0.00 | 0.00 | 0.00 | 29 | 1010.9 |
| 20260507000315 | 22 | 292 | 27.4 | 32.2 | 0.00 | 0.00 | 0.00 | 29 | 1010.6 |
| 20260506235812 | 22 | 279 | 20.9 | 22.5 | 0.00 | 0.00 | 0.00 | 29 | 1010.8 |
| 20260506235308 | 22 | 285 | 33.8 | 38.6 | 0.00 | 0.00 | 0.00 | 28 | 1010.9 |
| 20260506234805 | 22 | 302 | 30.6 | 37.0 | 0.00 | 0.00 | 0.00 | 29 | 1010.9 |
| 20260506234302 | 22 | 278 | 35.4 | 40.2 | 0.00 | 0.00 | 0.00 | 28 | 1010.8 |
| 20260506233800 | 21 | 317 | 11.3 | 12.9 | 0.00 | 0.00 | 0.00 | 31 | 1010.9 |
| 20260506233250 | 21 | 297 | 19.3 | 24.1 | 0.00 | 0.00 | 0.00 | 31 | 1010.9 |
| 20260506232747 | 21 | 309 | 19.3 | 24.1 | 0.00 | 0.00 | 0.00 | 31 | 1010.8 |
| 20260506232242 | 21 | 297 | 24.1 | 27.4 | 0.00 | 0.00 | 0.00 | 29 | 1011.0 |
| 20260506231739 | 21 | 306 | 17.7 | 24.1 | 0.00 | 0.00 | 0.00 | 30 | 1010.9 |
| 20260506231238 | 21 | 278 | 19.3 | 25.7 | 0.00 | 0.00 | 0.00 | 29 | 1011.1 |
| 20260506230734 | 21 | 275 | 24.1 | 27.4 | 0.00 | 0.00 | 0.00 | 28 | 1011.0 |
| 20260506230231 | 22 | 283 | 24.1 | 25.7 | 0.00 | 0.00 | 0.00 | 29 | 1011.0 |
| 20260506225728 | 22 | 297 | 16.1 | 20.9 | 0.00 | 0.00 | 0.00 | 30 | 1011.2 |
| 20260506225225 | 21 | 340 | 22.5 | 27.4 | 0.00 | 0.00 | 0.00 | 29 | 1011.3 |
| 20260506224721 | 22 | 303 | 27.4 | 33.8 | 0.00 | 0.00 | 0.00 | 28 | 1011.6 |
| 20260506224218 | 22 | 286 | 30.6 | 35.4 | 0.00 | 0.00 | 0.00 | 29 | 1011.6 |
| 20260506223714 | 21 | 267 | 22.5 | 27.4 | 0.00 | 0.00 | 0.00 | 30 | 1011.6 |
| 20260506223210 | 21 | 285 | 33.8 | 38.6 | 0.00 | 0.00 | 0.00 | 29 | 1011.6 |
| 20260506222708 | 21 | 11 | 6.4 | 9.7 | 0.00 | 0.00 | 0.00 | 31 | 1011.8 |
| 20260506222203 | 21 | 85 | 3.2 | 3.2 | 0.00 | 0.00 | 0.00 | 31 | 1012.1 |
| 20260506221701 | 20 | 168 | 4.8 | 9.7 | 0.00 | 0.00 | 0.00 | 32 | 1011.9 |
| 20260506221159 | 20 | 298 | 11.3 | 14.5 | 0.00 | 0.00 | 0.00 | 31 | 1012.2 |
| 20260506220656 | 20 | 280 | 11.3 | 12.9 | 0.00 | 0.00 | 0.00 | 33 | 1012.4 |
| 20260506220150 | 20 | 47 | 1.6 | 3.2 | 0.00 | 0.00 | 0.00 | 34 | 1012.6 |
| 20260506215648 | 19 | 98 | 14.5 | 14.5 | 0.00 | 0.00 | 0.00 | 33 | 1012.6 |
| 20260506215143 | 18 | 95 | 12.9 | 14.5 | 0.00 | 0.00 | 0.00 | 35 | 1012.7 |
| 20260506214640 | 18 | 96 | 9.7 | 12.9 | 0.00 | 0.00 | 0.00 | 35 | 1012.8 |
| 20260506214137 | 18 | 70 | 14.5 | 16.1 | 0.00 | 0.00 | 0.00 | 34 | 1012.9 |
| 20260506213636 | 18 | 110 | 8.0 | 9.7 | 0.00 | 0.00 | 0.00 | 33 | 1013.0 |
| 20260506213132 | 18 | 82 | 6.4 | 8.0 | 0.00 | 0.00 | 0.00 | 35 | 1012.8 |
| 20260506212630 | 19 | 56 | 6.4 | 8.0 | 0.00 | 0.00 | 0.00 | 35 | 1013.0 |
| 20260506212124 | 18 | 89 | 11.3 | 14.5 | 0.00 | 0.00 | 0.00 | 35 | 1013.2 |
| 20260506211620 | 18 | 80 | 8.0 | 9.7 | 0.00 | 0.00 | 0.00 | 37 | 1013.2 |
| 20260506211117 | 18 | 92 | 8.0 | 12.9 | 0.00 | 0.00 | 0.00 | 36 | 1013.2 |
| 20260506210614 | 18 | 90 | 14.5 | 14.5 | 0.00 | 0.00 | 0.00 | 36 | 1013.4 |
| 20260506210110 | 18 | 88 | 16.1 | 17.7 | 0.00 | 0.00 | 0.00 | 35 | 1013.2 |
| 20260506205608 | 17 | 115 | 6.4 | 8.0 | 0.00 | 0.00 | 0.00 | 35 | 1013.6 |
| 20260506205103 | 17 | 76 | 12.9 | 14.5 | 0.00 | 0.00 | 0.00 | 36 | 1013.5 |
| 20260506204601 | 17 | 67 | 16.1 | 20.9 | 0.00 | 0.00 | 0.00 | 36 | 1013.9 |
| 20260506204057 | 17 | 79 | 9.7 | 12.9 | 0.00 | 0.00 | 0.00 | 36 | 1013.8 |
| 20260506203556 | 16 | 9 | 8.0 | 11.3 | 0.00 | 0.00 | 0.00 | 37 | 1013.9 |
| 20260506203052 | 16 | 80 | 17.7 | 20.9 | 0.00 | 0.00 | 0.00 | 35 | 1014.0 |
| 20260506202550 | 16 | 62 | 9.7 | 12.9 | 0.00 | 0.00 | 0.00 | 36 | 1014.0 |
| 20260506202046 | 16 | 73 | 14.5 | 16.1 | 0.00 | 0.00 | 0.00 | 37 | 1014.2 |
| 20260506201544 | 16 | 105 | 14.5 | 17.7 | 0.00 | 0.00 | 0.00 | 36 | 1014.2 |
| 20260506201040 | 16 | 114 | 11.3 | 12.9 | 0.00 | 0.00 | 0.00 | 37 | 1014.4 |
| 20260506200536 | 16 | 70 | 14.5 | 17.7 | 0.00 | 0.00 | 0.00 | 36 | 1014.4 |
| 20260506200033 | 15 | 103 | 16.1 | 16.1 | 0.00 | 0.00 | 0.00 | 37 | 1014.7 |
| 20260506195530 | 15 | 70 | 14.5 | 17.7 | 0.00 | 0.00 | 0.00 | 37 | 1014.8 |
| 20260506195026 | 15 | 96 | 16.1 | 24.1 | 0.00 | 0.00 | 0.00 | 37 | 1014.7 |
| 20260506194524 | 15 | 49 | 11.3 | 16.1 | 0.00 | 0.00 | 0.00 | 38 | 1014.8 |
| 20260506194020 | 15 | 93 | 16.1 | 20.9 | 0.00 | 0.00 | 0.00 | 38 | 1015.0 |
| 20260506193518 | 15 | 73 | 12.9 | 16.1 | 0.00 | 0.00 | 0.00 | 39 | 1015.4 |
| 20260506193015 | 14 | 73 | 11.3 | 14.5 | 0.00 | 0.00 | 0.00 | 38 | 1015.4 |
| 20260506192511 | 15 | 83 | 16.1 | 20.9 | 0.00 | 0.00 | 0.00 | 37 | 1015.4 |
| 20260506192007 | 14 | 97 | 17.7 | 20.9 | 0.00 | 0.00 | 0.00 | 35 | 1015.3 |
| 20260506191504 | 15 | 79 | 14.5 | 20.9 | 0.00 | 0.00 | 0.00 | 36 | 1015.5 |
| 20260506191001 | 14 | 80 | 14.5 | 16.1 | 0.00 | 0.00 | 0.00 | 37 | 1015.6 |
| 20260506190458 | 13 | 48 | 11.3 | 16.1 | 0.00 | 0.00 | 0.00 | 37 | 1015.9 |
| 20260506185954 | 13 | 96 | 11.3 | 16.1 | 0.00 | 0.00 | 0.00 | 37 | 1015.9 |
| 20260506185452 | 13 | 104 | 19.3 | 24.1 | 0.00 | 0.00 | 0.00 | 37 | 1016.1 |
| 20260506184948 | 13 | 77 | 14.5 | 20.9 | 0.00 | 0.00 | 0.00 | 36 | 1015.9 |
| 20260506184446 | 13 | 99 | 17.7 | 17.7 | 0.00 | 0.00 | 0.00 | 37 | 1016.3 |
| 20260506183943 | 13 | 88 | 14.5 | 17.7 | 0.00 | 0.00 | 0.00 | 38 | 1016.3 |
| 20260506183438 | 13 | 90 | 12.9 | 17.7 | 0.00 | 0.00 | 0.00 | 37 | 1016.7 |
| 20260506182935 | 12 | 21 | 14.5 | 17.7 | 0.00 | 0.00 | 0.00 | 36 | 1016.5 |
| 20260506182432 | 12 | 55 | 24.1 | 27.4 | 0.00 | 0.00 | 0.00 | 37 | 1016.5 |
| 20260506181930 | 12 | 92 | 14.5 | 16.1 | 0.00 | 0.00 | 0.00 | 38 | 1016.7 |
| 20260506181428 | 11 | 59 | 14.5 | 17.7 | 0.00 | 0.00 | 0.00 | 38 | 1016.8 |
| 20260506180924 | 11 | 35 | 9.7 | 12.9 | 0.00 | 0.00 | 0.00 | 41 | 1016.9 |
| 20260506180420 | 11 | 74 | 11.3 | 14.5 | 0.00 | 0.00 | 0.00 | 40 | 1017.0 |
| 20260506175917 | 11 | 85 | 16.1 | 17.7 | 0.00 | 0.00 | 0.00 | 37 | 1017.2 |
| 20260506175414 | 11 | 75 | 17.7 | 20.9 | 0.00 | 0.00 | 0.00 | 39 | 1017.4 |
| 20260506174911 | 11 | 106 | 8.0 | 11.3 | 0.00 | 0.00 | 0.00 | 42 | 1017.5 |
| 20260506174408 | 10 | 86 | 17.7 | 22.5 | 0.00 | 0.00 | 0.00 | 40 | 1017.5 |
| 20260506173906 | 10 | 60 | 17.7 | 22.5 | 0.00 | 0.00 | 0.00 | 42 | 1017.7 |
| 20260506173402 | 10 | 90 | 12.9 | 14.5 | 0.00 | 0.00 | 0.00 | 42 | 1017.6 |
| 20260506172900 | 10 | 67 | 17.7 | 20.9 | 0.00 | 0.00 | 0.00 | 44 | 1017.6 |
| 20260506172356 | 10 | 40 | 4.8 | 11.3 | 0.00 | 0.00 | 0.00 | 45 | 1017.8 |
| 20260506171853 | 10 | 51 | 8.0 | 11.3 | 0.00 | 0.00 | 0.00 | 46 | 1017.7 |
| 20260506171350 | 9 | 43 | 11.3 | 16.1 | 0.00 | 0.00 | 0.00 | 48 | 1018.0 |
| 20260506170848 | 10 | 125 | 14.5 | 14.5 | 0.00 | 0.00 | 0.00 | 43 | 1018.2 |
| 20260506170343 | 9 | 57 | 9.7 | 12.9 | 0.00 | 0.00 | 0.00 | 47 | 1018.0 |
| 20260506165838 | 9 | 100 | 8.0 | 11.3 | 0.00 | 0.00 | 0.00 | 46 | 1018.2 |
| 20260506165335 | 9 | 56 | 11.3 | 14.5 | 0.00 | 0.00 | 0.00 | 46 | 1018.3 |
| 20260506164831 | 9 | 87 | 12.9 | 14.5 | 0.00 | 0.00 | 0.00 | 44 | 1018.4 |
| 20260506164328 | 8 | 91 | 8.0 | 9.7 | 0.00 | 0.00 | 0.00 | 48 | 1018.5 |
| 20260506163825 | 8 | 39 | 8.0 | 11.3 | 0.00 | 0.00 | 0.00 | 46 | 1018.5 |
| 20260506163320 | 8 | 113 | 12.9 | 14.5 | 0.00 | 0.00 | 0.00 | 49 | 1018.7 |
| 20260506162816 | 8 | 45 | 4.8 | 8.0 | 0.00 | 0.00 | 0.00 | 51 | 1018.9 |
| 20260506162314 | 7 | 50 | 8.0 | 9.7 | 0.00 | 0.00 | 0.00 | 52 | 1018.9 |
| 20260506161811 | 7 | 73 | 11.3 | 14.5 | 0.00 | 0.00 | 0.00 | 53 | 1018.9 |
| 20260506161308 | 7 | 39 | 3.2 | 3.2 | 0.00 | 0.00 | 0.00 | 53 | 1019.2 |
| 20260506160805 | 7 | 40 | 1.6 | 3.2 | 0.00 | 0.00 | 0.00 | 55 | 1019.2 |
| 20260506160302 | 7 | 35 | 4.8 | 8.0 | 0.00 | 0.00 | 0.00 | 55 | 1019.1 |
| 20260506155801 | 6 | 104 | 3.2 | 3.2 | 0.00 | 0.00 | 0.00 | 56 | 1019.3 |
| 20260506155256 | 6 | 132 | 4.8 | 4.8 | 0.00 | 0.00 | 0.00 | 54 | 1019.3 |
| 20260506153404 | 6 | 57 | 3.2 | 3.2 | 0.00 | 0.00 | 0.00 | 58 | 1019.7 |
| 20260506152901 | 6 | 85 | 0.0 | 1.6 | 0.00 | 0.00 | 0.00 | 60 | 1019.6 |
| 20260506152358 | 5 | 170 | 0.0 | 0.0 | 0.00 | 0.00 | 0.00 | 61 | 1019.7 |
| 20260506151857 | 5 | 315 | 1.6 | 1.6 | 0.00 | 0.00 | 0.00 | 63 | 1019.8 |
| 20260506151353 | 5 | 58 | 4.8 | 4.8 | 0.00 | 0.00 | 0.00 | 63 | 1019.9 |
| 20260506150851 | 3 | 185 | 1.6 | 3.2 | 0.00 | 0.00 | 0.00 | 65 | 1020.1 |
| 20260506150347 | 3 | 185 | 3.2 | 3.2 | 0.00 | 0.00 | 0.00 | 66 | 1020.1 |
| 20260506145844 | 3 | 184 | 1.6 | 3.2 | 0.00 | 0.00 | 0.00 | 65 | 1020.1 |
| 20260506145340 | 3 | 183 | 3.2 | 3.2 | 0.00 | 0.00 | 0.00 | 67 | 1020.2 |
| 20260506144838 | 2 | 183 | 3.2 | 3.2 | 0.00 | 0.00 | 0.00 | 68 | 1020.2 |
| 20260506144334 | 2 | 198 | 3.2 | 4.8 | 0.00 | 0.00 | 0.00 | 70 | 1020.2 |
| 20260506143833 | 1 | 214 | 3.2 | 3.2 | 0.00 | 0.00 | 0.00 | 71 | 1020.3 |
| 20260506143329 | 2 | 217 | 0.0 | 1.6 | 0.00 | 0.00 | 0.00 | 71 | 1020.3 |
| 20260506142828 | 1 | 218 | 0.0 | 0.0 | 0.00 | 0.00 | 0.00 | 73 | 1020.3 |
| 20260506142325 | 1 | 224 | 0.0 | 0.0 | 0.00 | 0.00 | 0.00 | 74 | 1020.5 |
| 20260506141823 | 0 | 224 | 3.2 | 3.2 | 0.00 | 0.00 | 0.00 | 76 | 1020.7 |
| 20260506141321 | 0 | 230 | 3.2 | 3.2 | 0.00 | 0.00 | 0.00 | 76 | 1020.5 |
| 20260506140819 | 0 | 254 | 0.0 | 0.0 | 0.00 | 0.00 | 0.00 | 76 | 1020.8 |
| 20260506140315 | 0 | 254 | 1.6 | 1.6 | 0.00 | 0.00 | 0.00 | 75 | 1020.8 |
| 20260506135813 | 1 | 258 | 0.0 | 0.0 | 0.00 | 0.00 | 0.00 | 74 | 1020.8 |
| 20260506135309 | 0 | 263 | 0.0 | 0.0 | 0.00 | 0.00 | 0.00 | 76 | 1020.7 |
| 20260506134806 | 0 | 262 | 0.0 | 1.6 | 0.00 | 0.00 | 0.00 | 80 | 1020.8 |
| 20260506134302 | -1 | 263 | 0.0 | 0.0 | 0.00 | 0.00 | 0.00 | 81 | 1020.9 |
| 20260506133759 | -1 | 278 | 0.0 | 0.0 | 0.00 | 0.00 | 0.00 | 83 | 1020.7 |
| 20260506133256 | -1 | 281 | 0.0 | 1.6 | 0.00 | 0.00 | 0.00 | 83 | 1020.7 |
| 20260506132753 | -1 | 278 | 0.0 | 1.6 | 0.00 | 0.00 | 0.00 | 84 | 1020.7 |
| 20260506132250 | -2 | 280 | 1.6 | 1.6 | 0.00 | 0.00 | 0.00 | 85 | 1020.6 |
| 20260506131748 | -2 | 320 | 3.2 | 3.2 | 0.00 | 0.00 | 0.00 | 85 | 1020.7 |
| 20260506131243 | -2 | 5 | 1.6 | 1.6 | 0.00 | 0.00 | 0.00 | 85 | 1020.5 |
| 20260506130740 | -2 | 329 | 1.6 | 3.2 | 0.00 | 0.00 | 0.00 | 86 | 1020.6 |
| 20260506130237 | -2 | 347 | 1.6 | 1.6 | 0.00 | 0.00 | 0.00 | 85 | 1020.7 |
| 20260506125735 | -3 | 5 | 0.0 | 0.0 | 0.00 | 0.00 | 0.00 | 85 | 1020.5 |
| 20260506125233 | -3 | 2 | 0.0 | 0.0 | 0.00 | 0.00 | 0.00 | 84 | 1020.5 |
| 20260506124731 | -3 | 357 | 0.0 | 0.0 | 0.00 | 0.00 | 0.00 | 83 | 1020.5 |
| 20260506124229 | -3 | 2 | 0.0 | 0.0 | 0.00 | 0.00 | 0.00 | 84 | 1020.4 |
| 20260506123726 | -3 | 2 | 0.0 | 0.0 | 0.00 | 0.00 | 0.00 | 85 | 1020.4 |
| 20260506123225 | -4 | 0 | 0.0 | 0.0 | 0.00 | 0.00 | 0.00 | 86 | 1020.4 |
| 20260506122721 | -4 | 17 | 1.6 | 1.6 | 0.00 | 0.00 | 0.00 | 87 | 1020.3 |
| 20260506122218 | -5 | 42 | 0.0 | 0.0 | 0.00 | 0.00 | 0.00 | 87 | 1020.4 |
| 20260506121716 | -5 | 43 | 0.0 | 0.0 | 0.00 | 0.00 | 0.00 | 87 | 1020.4 |
| 20260506121212 | -5 | 54 | 0.0 | 0.0 | 0.00 | 0.00 | 0.00 | 87 | 1020.4 |
| 20260506120710 | -5 | 58 | 0.0 | 0.0 | 0.00 | 0.00 | 0.00 | 86 | 1020.4 |
| 20260506120208 | -5 | 44 | 0.0 | 0.0 | 0.00 | 0.00 | 0.00 | 85 | 1020.3 |
| 20260506115706 | -3 | 60 | 1.6 | 1.6 | 0.00 | 0.00 | 0.00 | 84 | 1020.4 |
| 20260506115204 | -3 | 81 | 0.0 | 0.0 | 0.00 | 0.00 | 0.00 | 84 | 1020.4 |
| 20260506114701 | -3 | 100 | 0.0 | 0.0 | 0.00 | 0.00 | 0.00 | 82 | 1020.4 |
| 20260506114158 | -3 | 148 | 1.6 | 1.6 | 0.00 | 0.00 | 0.00 | 82 | 1020.3 |
| 20260506113657 | -2 | 168 | 1.6 | 1.6 | 0.00 | 0.00 | 0.00 | 82 | 1020.4 |
| 20260506113154 | -3 | 147 | 1.6 | 1.6 | 0.00 | 0.00 | 0.00 | 82 | 1020.2 |
| 20260506112649 | -2 | 142 | 3.2 | 3.2 | 0.00 | 0.00 | 0.00 | 82 | 1020.4 |
| 20260506112148 | -3 | 142 | 3.2 | 3.2 | 0.00 | 0.00 | 0.00 | 83 | 1020.4 |
| 20260506111645 | -3 | 115 | 0.0 | 0.0 | 0.00 | 0.00 | 0.00 | 84 | 1020.3 |
| 20260506111143 | -3 | 87 | 1.6 | 1.6 | 0.00 | 0.00 | 0.00 | 84 | 1020.3 |
| 20260506110640 | -3 | 57 | 0.0 | 0.0 | 0.00 | 0.00 | 0.00 | 84 | 1020.5 |
| 20260506110137 | -3 | 56 | 0.0 | 0.0 | 0.00 | 0.00 | 0.00 | 84 | 1020.5 |
| 20260506105633 | -3 | 56 | 0.0 | 1.6 | 0.00 | 0.00 | 0.00 | 84 | 1020.5 |
| 20260506105130 | -3 | 45 | 1.6 | 1.6 | 0.00 | 0.00 | 0.00 | 83 | 1020.7 |
| 20260506104629 | -3 | 37 | 0.0 | 0.0 | 0.00 | 0.00 | 0.00 | 84 | 1020.6 |
| 20260506104126 | -3 | 51 | 0.0 | 0.0 | 0.00 | 0.00 | 0.00 | 84 | 1020.6 |
| 20260506103623 | -3 | 84 | 0.0 | 0.0 | 0.00 | 0.00 | 0.00 | 84 | 1020.7 |
| 20260506103120 | -3 | 100 | 1.6 | 3.2 | 0.00 | 0.00 | 0.00 | 85 | 1020.7 |
| 20260506102618 | -3 | 60 | 0.0 | 0.0 | 0.00 | 0.00 | 0.00 | 86 | 1020.6 |
| 20260506102115 | -3 | 74 | 0.0 | 0.0 | 0.00 | 0.00 | 0.00 | 84 | 1020.6 |
| 20260506101612 | -3 | 98 | 0.0 | 0.0 | 0.00 | 0.00 | 0.00 | 84 | 1020.5 |
| 20260506101108 | -3 | 98 | 0.0 | 0.0 | 0.00 | 0.00 | 0.00 | 85 | 1020.8 |
| 20260506100607 | -3 | 98 | 1.6 | 1.6 | 0.00 | 0.00 | 0.00 | 84 | 1020.5 |
| 20260506100105 | -3 | 359 | 3.2 | 3.2 | 0.00 | 0.00 | 0.00 | 85 | 1020.8 |
| 20260506095604 | -3 | 20 | 0.0 | 0.0 | 0.00 | 0.00 | 0.00 | 84 | 1020.8 |
| 20260506095100 | -3 | 45 | 0.0 | 0.0 | 0.00 | 0.00 | 0.00 | 82 | 1020.9 |
| 20260506094557 | -2 | 86 | 0.0 | 0.0 | 0.00 | 0.00 | 0.00 | 81 | 1020.7 |
| 20260506094055 | -2 | 104 | 1.6 | 1.6 | 0.00 | 0.00 | 0.00 | 83 | 1020.7 |
| 20260506093553 | -2 | 104 | 1.6 | 1.6 | 0.00 | 0.00 | 0.00 | 83 | 1020.7 |
| 20260506093051 | -2 | 158 | 1.6 | 1.6 | 0.00 | 0.00 | 0.00 | 83 | 1020.7 |